Weather History for KISP - October, 2011

Change the Weather History Date:

Friday, October 14, 2011

  Actual Average Record
Temperature  
Mean Temperature 64 °F 55 °F  
Max Temperature 69 °F 64 °F 81 °F (1990)
Min Temperature 58 °F 46 °F 31 °F (1993)
Degree Days  
Heating Degree Days 1 11  
Month to date heating degree days 60 119  
Since 1 July heating degree days 84 196  
Cooling Degree Days 0 0  
Month to date cooling degree days 12 9  
Year to date cooling degree days 1082 786  
Growing Degree Days 14 (Base 50)    
Moisture  
Dew Point 63 °F    
Average Humidity 82    
Maximum Humidity 100    
Minimum Humidity 64    
Precipitation  
Precipitation 0.29 in 0.12 in 5.38 in (2005)
Month to date precipitation 2.36 1.73  
Year to date precipitation 42.82 36.45  
Snow  
Snow 0.00 in 0.00 in - ()
Month to date snowfall 0.0 0.0  
Since 1 July snowfall 0.0 0.0  
Snow Depth 0.00 in    
Sea Level Pressure  
Sea Level Pressure 29.54 in    
Wind  
Wind Speed 13 mph (SSE)    
Max Wind Speed 22 mph    
Max Gust Speed 30 mph    
Visibility 7 miles    
Events Fog , Rain , Thunderstorm    
T = Trace of Precipitation, MM = Missing Value Source: NWS Daily Summary

Daily Weather History Graph

Daily Weather History Graph

Search for Another Location

Airport or City:

Trip Planner

Search our weather history database for the weather conditions in past years. The results will help you decide how hot, cold, wet, or windy it might be!

Date:

Astronomy

Oct. 14, 2011 Rise Set
Actual Time 7:02 AM EDT 6:14 PM EDT
Civil Twilight 6:34 AM EDT 6:41 PM EDT
Nautical Twilight 6:02 AM EDT 7:13 PM EDT
Astronomical Twilight 5:31 AM EDT 7:44 PM EDT
Moon 7:24 PM EDT (10/14) 9:29 AM EDT (10/14)
Length of Visible Light 12h 06m
Length of Day
11h 11m
Waning Gibbous, 94% of the Moon is Illuminated
Oct 14
Waning Gibbous
Oct 19
Last Quarter
Oct 26
New
Nov 2
First Quarter
Nov 10
Full

Hourly Weather History & Observations

Time (EDT) Temp. Dew Point Humidity Pressure Visibility Wind Dir Wind Speed Gust Speed Precip Events Conditions
12:01 AM 64.4 °F 64.4 °F 100% 29.69 in 0.2 mi ESE 6.9 mph - 0.00 in Fog Fog
12:35 AM 66.2 °F 64.4 °F 94% 29.67 in 1.0 mi East 10.4 mph - 0.00 in Rain Light Rain
12:56 AM 66.0 °F 64.9 °F 96% 29.67 in 2.0 mi ESE 10.4 mph - 0.00 in Rain Light Rain
1:06 AM 66.2 °F 64.4 °F 94% 29.67 in 4.0 mi ESE 11.5 mph - 0.00 in   Overcast
1:41 AM 66.2 °F 64.4 °F 94% 29.64 in 5.0 mi ESE 13.8 mph - 0.10 in Rain , Thunderstorm Light Thunderstorms and Rain
1:49 AM 66.2 °F 64.4 °F 94% 29.64 in 10.0 mi SE 13.8 mph 20.7 mph 0.10 in Thunderstorm Thunderstorm
1:56 AM 66.9 °F 64.9 °F 93% 29.64 in 10.0 mi ESE 16.1 mph 20.7 mph 0.10 in Rain , Thunderstorm Light Thunderstorms and Rain
2:00 AM 66.2 °F 64.4 °F 94% 29.64 in 10.0 mi ESE 17.3 mph - 0.00 in Rain Light Rain
2:26 AM 66.2 °F 64.4 °F 94% 29.64 in 10.0 mi SE 13.8 mph 24.2 mph 0.00 in   Overcast
2:56 AM 66.9 °F 64.9 °F 93% 29.64 in 10.0 mi SE 11.5 mph 20.7 mph 0.00 in   Overcast
3:56 AM 66.9 °F 66.0 °F 97% 29.63 in 8.0 mi SE 11.5 mph - N/A   Overcast
4:11 AM 66.2 °F 66.2 °F 100% 29.63 in 10.0 mi SE 11.5 mph - N/A   Overcast
4:20 AM 66.2 °F 64.4 °F 94% 29.63 in 10.0 mi SSE 10.4 mph - N/A   Overcast
4:56 AM 66.9 °F 64.9 °F 93% 29.62 in 10.0 mi SE 9.2 mph - N/A   Mostly Cloudy
5:25 AM 66.2 °F 64.4 °F 94% 29.61 in 10.0 mi SSE 10.4 mph - N/A   Mostly Cloudy
5:56 AM 68.0 °F 66.0 °F 93% 29.61 in 10.0 mi SSE 10.4 mph - N/A   Overcast
6:56 AM 68.0 °F 66.2 °F 94% 29.60 in 9.0 mi SSE 13.8 mph - N/A   Overcast
7:56 AM 68.0 °F 66.0 °F 93% 29.59 in 5.0 mi SSE 10.4 mph - 0.00 in Rain Light Rain
8:56 AM 68.0 °F 66.0 °F 93% 29.57 in 5.0 mi SSE 12.7 mph - 0.03 in   Overcast
9:10 AM 68.0 °F 66.2 °F 94% 29.56 in 1.2 mi SSE 13.8 mph - 0.00 in Rain Rain
9:36 AM 68.0 °F 66.2 °F 94% 29.54 in 4.0 mi SSE 10.4 mph - 0.15 in   Overcast
9:56 AM 68.0 °F 66.9 °F 96% 29.54 in 4.0 mi SSE 13.8 mph 20.7 mph 0.15 in   Overcast
10:56 AM 68.0 °F 66.9 °F 96% 29.53 in 3.0 mi South 13.8 mph - 0.00 in   Overcast
11:56 AM 68.0 °F 66.9 °F 96% 29.51 in 3.0 mi South 15.0 mph 23.0 mph 0.00 in Rain Light Rain
12:56 PM 68.0 °F 66.9 °F 96% 29.48 in 3.0 mi SSE 12.7 mph - 0.01 in Rain Light Rain
1:56 PM 68.0 °F 66.0 °F 93% 29.44 in 6.0 mi South 15.0 mph 21.9 mph 0.00 in Rain Light Rain
2:21 PM 68.0 °F 64.4 °F 88% 29.43 in 10.0 mi South 16.1 mph 23.0 mph 0.00 in   Overcast
2:56 PM 66.9 °F 64.9 °F 93% 29.41 in 7.0 mi South 11.5 mph - 0.00 in   Overcast
3:36 PM 68.0 °F 64.4 °F 88% 29.39 in 10.0 mi SSE 15.0 mph - N/A   Mostly Cloudy
3:56 PM 68.0 °F 64.9 °F 90% 29.39 in 7.0 mi South 11.5 mph 20.7 mph 0.00 in Rain Light Rain
4:56 PM 68.0 °F 64.0 °F 87% 29.38 in 7.0 mi South 11.5 mph 24.2 mph 0.00 in   Overcast
5:56 PM 66.0 °F 63.0 °F 90% 29.37 in 7.0 mi South 11.5 mph - N/A   Overcast
6:56 PM 64.0 °F 55.9 °F 75% 29.38 in 10.0 mi WSW 20.7 mph 25.3 mph 0.00 in Rain Light Rain
7:08 PM 64.4 °F 57.2 °F 77% 29.38 in 10.0 mi WSW 13.8 mph - 0.00 in   Overcast
7:56 PM 63.0 °F 59.0 °F 87% 29.40 in 10.0 mi WSW 13.8 mph - 0.00 in Rain Light Rain
8:56 PM 60.8 °F 55.4 °F 82% 29.43 in 10.0 mi WSW 12.7 mph - N/A   Mostly Cloudy
9:56 PM 60.1 °F 52.0 °F 75% 29.46 in 10.0 mi WSW 15.0 mph - N/A   Partly Cloudy
10:56 PM 59.0 °F 52.0 °F 78% 29.48 in 10.0 mi WSW 11.5 mph - N/A   Partly Cloudy
11:56 PM 60.1 °F 48.9 °F 67% 29.50 in 10.0 mi WSW 13.8 mph 23.0 mph N/A   Partly Cloudy